Location: Little Arabia
(41.4620°N, 81.7687°W)
Time: 20:28:31
(UTC+00:00)

OAO 2 Rocket - Pass Details

Date: 29 October 2020
Orbit: 676 x 746 km, 35.0° (Epoch: 03 December)

Event Time Altitude Azimuth Distance (km) Brightness Sun altitude
Rises 23:36:53 0° 254° (WSW) 3,069 8.4 -14.0°
Reaches altitude 10° 23:39:25 10° 247° (WSW) 2,140 7.0 -14.4°
Maximum altitude 23:44:04 40° 178° (S) 1,011 4.1 -15.3°
Enters shadow 23:46:56 20° 121° (ESE) 1,538 4.6 -15.8°
